Location: Deneb Observatory
(47.2267°N, 100.4953°W)
Time: 00:44:23
(UTC-05:00)

Amateur Radio Satellites - All Passes

Search period start: 01 August 2014 00:14
Search period end: 02 August 2014 00:14
Location: Deneb Observatory, 47.2267°N, 100.4953°W

Satellite Date Start Highest point End Downlink Frequencies (MHz)
Time Altitude Azimuth
ISS 01 Aug 00:14:11 00:17:29 63° 150° (SSE) 00:20:48 145.800 FM
MaSat-1 01 Aug 00:17:45 00:19:34 12° 330° (NNW) 00:21:26 437.345 MHz
Oscar 10/S400 01 Aug 00:27:11 00:53:45 54° 170° (S) 09:10:33 145.825 - 145.975 CW/USB, Beacon 145.810 USB
PCSat 01 Aug 00:29:33 00:34:09 29° 110° (ESE) 00:38:48 145.825 MHz
UOSAT-12 01 Aug 00:38:52 00:41:58 18° 249° (WSW) 00:45:03 437.025 FM, 437.400 FM
FUNcube-1 01 Aug 00:46:51 00:48:15 11° 272° (W) 00:49:38 145.950 - 145.970 MHz USB
AO-40 01 Aug 00:58:52 06:40:26 33° 178° (S) 09:20:19 Beacon 2401.320
Sapphire 01 Aug 01:38:42 01:44:07 90° 306° (NW) 01:49:35 437.095 MHz 1200 baud AX-25 AFSK
ISS 01 Aug 01:51:07 01:54:20 42° 349° (N) 01:57:34 145.800 FM
Oscar 19 01 Aug 01:56:37 01:58:45 12° 87° (E) 02:00:53 437.125 CW, 437.150 USB
PCSat 01 Aug 02:12:04 02:17:20 51° 310° (NW) 02:22:39 145.825 MHz
Oscar 16 01 Aug 02:24:04 02:28:10 23° 92° (E) 02:32:15 437.025 USB, Beacon 2401.1428
ITAMSAT 1 01 Aug 02:52:09 02:55:45 19° 90° (E) 02:59:20 435.822 SSB
Uribyol 2 01 Aug 03:10:10 03:14:36 28° 94° (E) 03:19:00 436.500 FM
AO-27 01 Aug 03:11:41 03:16:08 28° 94° (E) 03:20:32 436.795 MHz FM
JAS-1B 01 Aug 03:23:27 03:31:40 34° 89° (E) 03:38:48 435.800 - 435.900 CW/SSB
Sapphire 01 Aug 03:24:09 03:28:18 22° 324° (NW) 03:32:29 437.095 MHz 1200 baud AX-25 AFSK
AO-Echo 01 Aug 03:24:23 03:29:05 37° 96° (E) 03:33:35 ?
TMSAT-1 01 Aug 03:27:45 03:30:04 13° 86° (E) 03:32:22 436.925 FM
ISS 01 Aug 03:28:16 03:31:29 41° 9° (N) 03:34:42 145.800 FM
Oscar 19 01 Aug 03:33:39 03:38:51 87° 105° (ESE) 03:44:03 437.125 CW, 437.150 USB
Gurwin Techsat 1B 01 Aug 03:52:37 03:57:13 29° 94° (E) 04:01:46 435.225 FM
OPAL 01 Aug 03:58:03 04:02:34 37° 64° (ENE) 04:07:07 ?
PCSat 01 Aug 03:58:58 04:02:05 15° 333° (NNW) 04:05:12 145.825 MHz
Oscar 16 01 Aug 04:02:48 04:07:49 52° 291° (WNW) 04:12:50 437.025 USB, Beacon 2401.1428
ITAMSAT 1 01 Aug 04:30:35 04:35:43 65° 289° (WNW) 04:40:49 435.822 SSB
AO-7 01 Aug 04:32:14 04:37:12 17° 86° (E) 04:42:08 29.400 - 29.500 MHz
Uribyol 2 01 Aug 04:49:22 04:54:14 43° 293° (WNW) 04:59:05 436.500 FM
AO-27 01 Aug 04:50:54 04:55:48 44° 293° (WNW) 05:00:40 436.795 MHz FM
AO-Echo 01 Aug 05:03:19 05:07:46 31° 296° (WNW) 05:12:04 ?
ISS 01 Aug 05:05:01 05:08:22 70° 208° (SSW) 05:11:43 145.800 FM
TMSAT-1 01 Aug 05:05:26 05:10:46 87° 105° (ESE) 05:16:04 436.925 FM
JAS-1B 01 Aug 05:13:31 05:22:52 66° 293° (WNW) 05:30:50 435.800 - 435.900 CW/SSB
Oscar 19 01 Aug 05:14:28 05:17:31 16° 304° (WNW) 05:20:34 437.125 CW, 437.150 USB
MaSat-1 01 Aug 05:14:52 05:19:00 22° 42° (NE) 05:23:02 437.345 MHz
KITSAT 1 01 Aug 05:16:32 05:21:57 20° 102° (ESE) 05:27:22 435.175 FM
Uosat F 01 Aug 05:24:21 05:28:49 31° 96° (E) 05:33:15 435.120 FM
Gurwin Techsat 1B 01 Aug 05:32:19 05:37:21 44° 292° (WNW) 05:42:20 435.225 FM
OPAL 01 Aug 05:37:07 05:41:30 31° 262° (W) 05:45:56 ?
ITAMSAT 1 01 Aug 06:12:42 06:14:15 11° 308° (NW) 06:15:47 435.822 SSB
AO-7 01 Aug 06:23:01 06:31:24 76° 107° (ESE) 06:39:42 29.400 - 29.500 MHz
STRAND 1 01 Aug 06:27:08 06:31:23 27° 62° (ENE) 06:35:38 ?
ISS 01 Aug 06:43:00 06:44:34 13° 226° (SW) 06:46:07 145.800 FM
TMSAT-1 01 Aug 06:46:48 06:50:00 16° 304° (NW) 06:53:11 436.925 FM
JAS-2 01 Aug 06:47:39 06:51:25 18° 86° (E) 06:54:59 435.800 - 435.900 CW/SSB, 435.910 FM
MaSat-1 01 Aug 06:51:38 06:56:58 80° 243° (WSW) 07:02:00 437.345 MHz
Sapphire 01 Aug 06:58:36 07:00:08 11° 17° (NNE) 07:01:40 437.095 MHz 1200 baud AX-25 AFSK
Uosat F 01 Aug 07:03:03 07:07:39 37° 294° (WNW) 07:12:13 435.120 FM
JAS-1B 01 Aug 07:05:10 07:11:30 21° 316° (NW) 07:17:23 435.800 - 435.900 CW/SSB
KITSAT 1 01 Aug 07:08:04 07:16:10 83° 122° (ESE) 07:24:19 435.175 FM
Hamsat 01 Aug 07:09:43 07:13:34 31° 95° (E) 07:17:25 145.90 MHz
PCSat 01 Aug 07:31:01 07:34:04 15° 26° (NNE) 07:37:08 145.825 MHz
Saudisat 1A 01 Aug 07:42:29 07:46:39 43° 120° (ESE) 07:50:52 436.775 MHz
STRAND 1 01 Aug 08:05:23 08:10:20 47° 261° (W) 08:15:18 ?
AO-7 01 Aug 08:16:32 08:23:31 31° 308° (NW) 08:30:29 29.400 - 29.500 MHz
SO-67 01 Aug 08:23:09 08:26:12 28° 96° (E) 08:29:14 435.3500 MHz FM
MaSat-1 01 Aug 08:31:13 08:33:22 13° 262° (W) 08:35:28 437.345 MHz
JAS-2 01 Aug 08:31:25 08:37:22 72° 288° (WNW) 08:42:41 435.800 - 435.900 CW/SSB, 435.910 FM
Sapphire 01 Aug 08:40:40 08:45:26 30° 42° (NE) 08:50:11 437.095 MHz 1200 baud AX-25 AFSK
Hamsat 01 Aug 08:45:45 08:49:29 29° 293° (WNW) 08:53:14 145.90 MHz
KITSAT 1 01 Aug 09:05:13 09:12:28 34° 326° (NNW) 09:19:45 435.175 FM
HO-68 01 Aug 09:07:10 09:09:52 12° 84° (E) 09:12:32 435.675 MHz FM
PCSat 01 Aug 09:13:33 09:18:50 49° 50° (NE) 09:24:06 145.825 MHz
Saudisat 1A 01 Aug 09:22:26 09:26:23 31° 320° (NW) 09:30:21 436.775 MHz
SO-67 01 Aug 09:56:28 09:59:09 21° 293° (WNW) 10:01:48 435.3500 MHz FM
JAS-2 01 Aug 10:18:30 10:21:15 14° 311° (NW) 10:23:53 435.800 - 435.900 CW/SSB, 435.910 FM
Oscar 11 01 Aug 10:22:51 10:25:13 14° 89° (E) 10:27:35 145.825 FM, Beacon 2401.500 USB
Sapphire 01 Aug 10:23:52 10:29:12 58° 242° (WSW) 10:34:30 437.095 MHz 1200 baud AX-25 AFSK
HO-68 01 Aug 10:51:49 10:58:57 66° 104° (ESE) 11:06:02 435.675 MHz FM
FUNcube-1 01 Aug 10:55:13 10:56:31 11° 88° (E) 10:57:50 145.950 - 145.970 MHz USB
PCSat 01 Aug 10:57:21 11:02:03 30° 249° (WSW) 11:06:43 145.825 MHz
KITSAT 1 01 Aug 11:04:59 11:10:41 20° 355° (N) 11:16:24 435.175 FM
Saudisat 1A 01 Aug 11:06:21 11:07:22 11° 343° (NNW) 11:08:22 436.775 MHz
UKube-1 01 Aug 11:16:19 11:20:43 85° 104° (ESE) 11:25:03 145.840 MHz, 145.915 MHz
SO-50 01 Aug 11:34:37 11:36:21 12° 108° (ESE) 11:38:06 436.795 FM
Oscar 11 01 Aug 11:57:32 12:01:51 64° 287° (WNW) 12:06:08 145.825 FM, Beacon 2401.500 USB
JAS-1B 01 Aug 12:25:34 12:30:00 14° 35° (NE) 12:34:27 435.800 - 435.900 CW/SSB
RS-15 01 Aug 12:25:55 12:33:59 24° 101° (E) 12:41:55 29.354 - 29.394 USB, Beacon 29.352 USB
FUNcube-1 01 Aug 12:29:16 12:33:28 76° 285° (WNW) 12:37:41 145.950 - 145.970 MHz USB
HO-68 01 Aug 12:40:10 12:46:11 30° 304° (NW) 12:52:11 435.675 MHz FM
UKube-1 01 Aug 12:54:21 12:56:17 13° 303° (WNW) 12:58:12 145.840 MHz, 145.915 MHz
Uribyol 2 01 Aug 12:57:03 12:57:36 10° 51° (NE) 12:58:09 436.500 FM
AO-27 01 Aug 12:58:38 12:59:21 10° 51° (NE) 13:00:04 436.795 MHz FM
KITSAT 1 01 Aug 13:02:33 13:09:15 27° 25° (NNE) 13:15:54 435.175 FM
AO-Echo 01 Aug 13:05:12 13:07:11 12° 53° (NE) 13:09:10 ?
SO-50 01 Aug 13:11:40 13:16:09 88° 128° (SE) 13:20:46 436.795 FM
Oscar 19 01 Aug 13:15:43 13:19:54 26° 62° (ENE) 13:24:06 437.125 CW, 437.150 USB
Gurwin Techsat 1B 01 Aug 13:41:42 13:42:57 11° 51° (NE) 13:44:13 435.225 FM
Oscar 16 01 Aug 13:43:56 13:48:47 45° 68° (ENE) 13:53:40 437.025 USB, Beacon 2401.1428
AO-7 01 Aug 13:49:10 13:51:00 11° 30° (NNE) 13:52:50 29.400 - 29.500 MHz
JAS-1B 01 Aug 14:09:15 14:17:51 42° 58° (ENE) 14:26:51 435.800 - 435.900 CW/SSB
ITAMSAT 1 01 Aug 14:12:50 14:17:38 39° 66° (ENE) 14:22:27 435.822 SSB
Saudisat 1A 01 Aug 14:27:16 14:30:28 19° 32° (NNE) 14:33:38 436.775 MHz
Uribyol 2 01 Aug 14:30:57 14:36:02 58° 70° (ENE) 14:41:08 436.500 FM
AO-27 01 Aug 14:32:42 14:37:49 58° 70° (ENE) 14:42:57 436.795 MHz FM
RS-15 01 Aug 14:33:35 14:44:41 85° 124° (SE) 14:55:40 29.354 - 29.394 USB, Beacon 29.352 USB
AO-Echo 01 Aug 14:39:44 14:45:00 67° 72° (ENE) 14:50:16 ?
TMSAT-1 01 Aug 14:50:41 14:55:09 29° 63° (ENE) 14:59:38 436.925 FM
UOSAT-12 01 Aug 14:51:15 14:55:51 70° 124° (SE) 15:00:32 437.025 FM, 437.400 FM
SO-50 01 Aug 14:53:57 14:57:21 20° 328° (NNW) 15:00:50 436.795 FM
Oscar 19 01 Aug 14:54:03 14:58:59 48° 261° (W) 15:03:58 437.125 CW, 437.150 USB
KITSAT 1 01 Aug 14:58:06 15:06:12 70° 51° (NE) 15:14:14 435.175 FM
Uosat F 01 Aug 15:06:51 15:07:38 10° 52° (NE) 15:08:26 435.120 FM
Gurwin Techsat 1B 01 Aug 15:16:39 15:21:52 60° 71° (ENE) 15:27:07 435.225 FM
Oscar 16 01 Aug 15:24:05 15:28:20 26° 266° (W) 15:32:38 437.025 USB, Beacon 2401.1428
AO-7 01 Aug 15:34:01 15:41:19 35° 54° (NE) 15:48:36 29.400 - 29.500 MHz
ITAMSAT 1 01 Aug 15:52:35 15:57:12 32° 265° (W) 16:01:51 435.822 SSB
JAS-1B 01 Aug 15:58:38 16:07:48 65° 260° (W) 16:17:43 435.800 - 435.900 CW/SSB
Saudisat 1A 01 Aug 16:06:14 16:10:41 88° 53° (NE) 16:15:06 436.775 MHz
Uribyol 2 01 Aug 16:12:01 16:15:53 21° 268° (W) 16:19:47 436.500 FM
AO-27 01 Aug 16:13:48 16:17:43 21° 268° (W) 16:21:39 436.795 MHz FM
AO-Echo 01 Aug 16:20:31 16:24:14 19° 270° (W) 16:27:58 ?
TMSAT-1 01 Aug 16:29:48 16:34:52 46° 261° (W) 16:39:59 436.925 FM
UOSAT-12 01 Aug 16:32:37 16:36:27 25° 325° (NW) 16:40:21 437.025 FM, 437.400 FM
Uosat F 01 Aug 16:40:28 16:45:26 61° 71° (ENE) 16:50:25 435.120 FM
RS-15 01 Aug 16:48:06 16:58:19 41° 332° (NNW) 17:08:33 29.354 - 29.394 USB, Beacon 29.352 USB
KITSAT 1 01 Aug 16:54:09 17:01:02 32° 252° (WSW) 17:07:54 435.175 FM
Gurwin Techsat 1B 01 Aug 16:58:18 17:02:15 21° 269° (W) 17:06:14 435.225 FM
JAS-2 01 Aug 17:03:05 17:07:45 18° 53° (NE) 17:12:09 435.800 - 435.900 CW/SSB, 435.910 FM
AO-7 01 Aug 17:25:18 17:33:37 67° 255° (WSW) 17:41:59 29.400 - 29.500 MHz
OPAL 01 Aug 17:42:52 17:47:49 50° 102° (ESE) 17:52:49 ?
Saudisat 1A 01 Aug 17:47:43 17:49:36 13° 251° (WSW) 17:51:29 436.775 MHz
JAS-1B 01 Aug 17:54:54 18:00:16 16° 282° (WNW) 18:05:53 435.800 - 435.900 CW/SSB
Hamsat 01 Aug 18:06:14 18:09:58 32° 68° (ENE) 18:13:45 145.90 MHz
UOSAT-12 01 Aug 18:17:25 18:18:18 10° 349° (NNW) 18:19:11 437.025 FM, 437.400 FM
SO-50 01 Aug 18:20:42 18:22:31 12° 18° (NNE) 18:24:20 436.795 FM
Uosat F 01 Aug 18:21:04 18:24:38 19° 269° (W) 18:28:14 435.120 FM
JAS-2 01 Aug 18:44:11 18:51:50 73° 72° (ENE) 18:58:48 435.800 - 435.900 CW/SSB, 435.910 FM
SO-67 01 Aug 19:00:05 19:02:24 17° 65° (ENE) 19:04:43 435.3500 MHz FM
RS-15 01 Aug 19:04:54 19:14:21 32° 6° (N) 19:23:56 29.354 - 29.394 USB, Beacon 29.352 USB
OPAL 01 Aug 19:22:17 19:26:27 26° 300° (WNW) 19:30:39 ?
AO-7 01 Aug 19:23:57 19:28:00 14° 276° (W) 19:32:05 29.400 - 29.500 MHz
HO-68 01 Aug 19:39:31 19:43:49 17° 47° (NE) 19:48:06 435.675 MHz FM
Hamsat 01 Aug 19:42:27 19:45:59 26° 266° (W) 19:49:33 145.90 MHz
UOSAT-12 01 Aug 19:59:19 20:00:40 11° 14° (NNE) 20:02:01 437.025 FM, 437.400 FM
SO-50 01 Aug 20:00:10 20:04:29 34° 41° (NE) 20:08:51 436.795 FM
STRAND 1 01 Aug 20:12:39 20:17:35 46° 99° (E) 20:22:27 ?
JAS-2 01 Aug 20:31:07 20:37:18 27° 269° (W) 20:43:09 435.800 - 435.900 CW/SSB, 435.910 FM
SO-67 01 Aug 20:32:00 20:35:13 35° 263° (W) 20:38:28 435.3500 MHz FM
UKube-1 01 Aug 20:41:03 20:43:25 15° 59° (ENE) 20:45:48 145.840 MHz, 145.915 MHz
MaSat-1 01 Aug 20:46:12 20:49:43 25° 105° (ESE) 20:53:37 437.345 MHz
RS-15 01 Aug 21:19:02 21:29:46 54° 39° (NE) 21:40:47 29.354 - 29.394 USB, Beacon 29.352 USB
Oscar 11 01 Aug 21:21:02 21:23:56 18° 62° (ENE) 21:26:50 145.825 FM, Beacon 2401.500 USB
HO-68 01 Aug 21:23:12 21:30:17 68° 68° (ENE) 21:37:23 435.675 MHz FM
UOSAT-12 01 Aug 21:38:19 21:42:25 28° 37° (NE) 21:46:28 437.025 FM, 437.400 FM
SO-50 01 Aug 21:40:40 21:45:11 44° 240° (WSW) 21:49:44 436.795 FM
STRAND 1 01 Aug 21:52:18 21:56:33 27° 297° (WNW) 22:00:47 ?
FUNcube-1 01 Aug 21:54:35 21:57:01 15° 61° (ENE) 21:59:26 145.950 - 145.970 MHz USB
UKube-1 01 Aug 22:14:43 22:19:05 74° 257° (WSW) 22:23:28 145.840 MHz, 145.915 MHz
MaSat-1 01 Aug 22:22:26 22:26:41 46° 307° (NW) 22:31:31 437.345 MHz
Oscar 11 01 Aug 22:55:31 22:59:44 55° 260° (W) 23:03:59 145.825 FM, Beacon 2401.500 USB
HO-68 01 Aug 23:12:39 23:18:32 27° 267° (W) 23:24:28 435.675 MHz FM
UOSAT-12 01 Aug 23:18:14 23:22:54 58° 238° (WSW) 23:27:30 437.025 FM, 437.400 FM
ISS 01 Aug 23:25:34 23:28:42 40° 145° (SE) 23:31:52 145.800 FM
FUNcube-1 01 Aug 23:28:44 23:32:58 64° 259° (WSW) 23:37:09 145.950 - 145.970 MHz USB
Sapphire 01 Aug 23:30:06 23:31:18 11° 101° (E) 23:32:29 437.095 MHz 1200 baud AX-25 AFSK
RS-15 01 Aug 23:31:42 23:42:23 59° 244° (WSW) 23:53:27 29.354 - 29.394 USB, Beacon 29.352 USB
PCSat 01 Aug 23:59:43 00:03:47 22° 108° (ESE) 00:07:52 145.825 MHz
MaSat-1 02 Aug 00:03:33 00:05:23 12° 330° (NNW) 00:07:17 437.345 MHz
